• In Belarus
  • List of Countries
  • For 7 days
  • Water Temperature
  • Satellite Maps
  • Weather Map
  • Weather Widgets
  • user-avatar
    Login

    Hourly Weather Bujumbura

    Today, 23 February, Friday

    Time Temperature Precipitation Wind Pressure Humidity
    00:00 +22°C° 0.2 mm 0 mps 689 mmHg 87%
    01:00 +22°C° 0.2 mm 0 mps 689 mmHg 87%
    02:00 +22°C° 0.2 mm 0 mps 689 mmHg 87%
    03:00 +22°C° 0 mm 0 mps 689 mmHg 86%
    04:00 +21°C° 0 mm 0 mps 689 mmHg 86%
    05:00 +21°C° 0 mm 0 mps 689 mmHg 85%
    06:00 +22°C° 0 mm 0 mps 689 mmHg 81%
    07:00 +24°C° 0 mm 0 mps 690 mmHg 77%
    08:00 +25°C° 0 mm 0 mps 691 mmHg 72%
    09:00 +29°C° 0 mm 1 mps 691 mmHg 65%
    10:00 +31°C° 0 mm 1 mps 691 mmHg 57%
    11:00 +33°C° 0 mm 1 mps 691 mmHg 50%
    12:00 +32°C° 0.7 mm 1 mps 690 mmHg 53%
    13:00 +32°C° 0.7 mm 1 mps 689 mmHg 57%
    14:00 +32°C° 0.7 mm 2 mps 689 mmHg 60%
    15:00 +30°C° 1.4 mm 1 mps 688 mmHg 66%
    16:00 +29°C° 1.4 mm 1 mps 688 mmHg 73%
    17:00 +28°C° 1.4 mm 1 mps 688 mmHg 79%
    18:00 +27°C° 0.7 mm 1 mps 688 mmHg 82%
    19:00 +26°C° 0.7 mm 1 mps 689 mmHg 86%
    20:00 +23°C° 0.7 mm 0 mps 689 mmHg 89%
    21:00 +22°C° 0.2 mm 0 mps 689 mmHg 89%
    22:00 +22°C° 0.2 mm 0 mps 690 mmHg 90%
    23:00 +22°C° 0.2 mm 0 mps 690 mmHg 90%

    Tomorrow, 24 February, Saturday

    Time Temperature Precipitation Wind Pressure Humidity
    00:00 +21°C° 0 mm 0 mps 690 mmHg 90%
    01:00 +21°C° 0 mm 0 mps 690 mmHg 90%
    02:00 +21°C° 0 mm 0 mps 689 mmHg 90%
    03:00 +20°C° 0 mm 0 mps 689 mmHg 90%
    04:00 +20°C° 0 mm 0 mps 689 mmHg 90%
    05:00 +20°C° 0 mm 0 mps 689 mmHg 89%
    06:00 +21°C° 0 mm 0 mps 690 mmHg 85%
    07:00 +23°C° 0 mm 0 mps 690 mmHg 80%
    08:00 +24°C° 0 mm 0 mps 691 mmHg 75%
    09:00 +29°C° 0 mm 1 mps 691 mmHg 65%
    10:00 +31°C° 0 mm 1 mps 691 mmHg 55%
    11:00 +34°C° 0 mm 1 mps 691 mmHg 46%
    12:00 +34°C° 0.6 mm 1 mps 691 mmHg 49%
    13:00 +34°C° 0.6 mm 2 mps 690 mmHg 51%
    14:00 +34°C° 0.6 mm 2 mps 689 mmHg 54%
    15:00 +32°C° 1.2 mm 2 mps 689 mmHg 61%
    16:00 +30°C° 1.2 mm 2 mps 689 mmHg 67%
    17:00 +29°C° 1.2 mm 2 mps 689 mmHg 73%
    18:00 +28°C° 1.3 mm 1 mps 689 mmHg 78%
    19:00 +26°C° 1.3 mm 1 mps 689 mmHg 82%
    20:00 +25°C° 1.3 mm 1 mps 690 mmHg 87%
    21:00 +25°C° 0.1 mm 1 mps 690 mmHg 88%
    22:00 +24°C° 0.1 mm 1 mps 691 mmHg 89%
    23:00 +22°C° 0.1 mm 0 mps 691 mmHg 90%

    Day after tomorrow, 25 February, Sunday

    Time Temperature Precipitation Wind Pressure Humidity
    00:00 +21°C° 0 mm 0 mps 690 mmHg 90%
    01:00 +21°C° 0 mm 0 mps 690 mmHg 89%
    02:00 +21°C° 0 mm 0 mps 690 mmHg 89%
    03:00 +21°C° 0 mm 0 mps 690 mmHg 89%
    04:00 +21°C° 0 mm 0 mps 690 mmHg 88%
    05:00 +20°C° 0 mm 0 mps 690 mmHg 88%
    06:00 +22°C° 0 mm 0 mps 690 mmHg 83%
    07:00 +23°C° 0 mm 0 mps 691 mmHg 78%
    08:00 +24°C° 0 mm 0 mps 692 mmHg 74%
    09:00 +28°C° 0 mm 1 mps 692 mmHg 62%
    10:00 +31°C° 0 mm 1 mps 693 mmHg 51%
    11:00 +33°C° 0 mm 1 mps 693 mmHg 40%
    12:00 +33°C° 0.1 mm 1 mps 692 mmHg 43%
    13:00 +33°C° 0.1 mm 1 mps 691 mmHg 45%
    14:00 +34°C° 0.1 mm 2 mps 690 mmHg 48%
    15:00 +32°C° 0.8 mm 1 mps 690 mmHg 54%
    16:00 +30°C° 0.8 mm 1 mps 689 mmHg 61%
    17:00 +29°C° 0.8 mm 1 mps 689 mmHg 67%
    18:00 +28°C° 0.9 mm 1 mps 690 mmHg 72%
    19:00 +26°C° 0.9 mm 1 mps 690 mmHg 76%
    20:00 +23°C° 0.9 mm 0 mps 691 mmHg 81%
    21:00 +22°C° 0.1 mm 0 mps 691 mmHg 82%
    22:00 +22°C° 0.1 mm 0 mps 691 mmHg 84%
    23:00 +21°C° 0.1 mm 0 mps 691 mmHg 85%

    26 February, Monday

    Time Temperature Precipitation Wind Pressure Humidity
    00:00 +21°C° 0 mm 0 mps 691 mmHg 86%
    01:00 +23°C° 0 mm 1 mps 690 mmHg 86%
    02:00 +22°C° 0 mm 1 mps 690 mmHg 87%
    03:00 +22°C° 0 mm 1 mps 690 mmHg 87%
    04:00 +22°C° 0 mm 1 mps 690 mmHg 88%
    05:00 +22°C° 0 mm 1 mps 690 mmHg 88%
    06:00 +23°C° 0 mm 1 mps 691 mmHg 83%
    07:00 +25°C° 0 mm 1 mps 691 mmHg 79%
    08:00 +26°C° 0 mm 1 mps 692 mmHg 74%
    09:00 +28°C° 0.1 mm 1 mps 692 mmHg 65%
    10:00 +30°C° 0.1 mm 1 mps 692 mmHg 57%
    11:00 +32°C° 0.1 mm 1 mps 692 mmHg 48%
    12:00 +32°C° 0.2 mm 2 mps 691 mmHg 48%
    13:00 +34°C° 0.2 mm 2 mps 691 mmHg 47%
    14:00 +34°C° 0.2 mm 2 mps 690 mmHg 47%
    15:00 +31°C° 0.8 mm 2 mps 690 mmHg 55%
    16:00 +30°C° 0.8 mm 2 mps 689 mmHg 63%
    17:00 +28°C° 0.8 mm 2 mps 689 mmHg 71%
    18:00 +27°C° 0.8 mm 1 mps 690 mmHg 76%
    19:00 +26°C° 0.8 mm 1 mps 690 mmHg 81%
    20:00 +23°C° 0.8 mm 0 mps 691 mmHg 86%
    21:00 +22°C° 0.2 mm 0 mps 691 mmHg 87%
    22:00 +21°C° 0.2 mm 0 mps 691 mmHg 89%
    23:00 +21°C° 0.2 mm 0 mps 692 mmHg 90%

    27 February, Tuesday

    Time Temperature Precipitation Wind Pressure Humidity
    00:00 +20°C° 0 mm 0 mps 691 mmHg 90%
    01:00 +20°C° 0 mm 0 mps 691 mmHg 89%
    02:00 +22°C° 0 mm 1 mps 690 mmHg 89%
    03:00 +22°C° 0 mm 1 mps 690 mmHg 89%
    04:00 +21°C° 0 mm 1 mps 690 mmHg 88%
    05:00 +21°C° 0 mm 1 mps 691 mmHg 88%
    06:00 +23°C° 0 mm 1 mps 691 mmHg 82%
    07:00 +25°C° 0 mm 1 mps 692 mmHg 77%
    08:00 +24°C° 0 mm 0 mps 693 mmHg 72%
    09:00 +28°C° 0 mm 1 mps 692 mmHg 62%
    10:00 +31°C° 0 mm 1 mps 692 mmHg 52%
    11:00 +34°C° 0 mm 2 mps 692 mmHg 42%
    12:00 +34°C° 0.1 mm 2 mps 691 mmHg 43%
    13:00 +34°C° 0.1 mm 2 mps 691 mmHg 44%
    14:00 +34°C° 0.1 mm 2 mps 690 mmHg 45%
    15:00 +32°C° 0.3 mm 2 mps 689 mmHg 50%
    16:00 +31°C° 0.3 mm 2 mps 689 mmHg 54%
    17:00 +30°C° 0.3 mm 2 mps 689 mmHg 59%
    18:00 +28°C° 0.4 mm 1 mps 689 mmHg 66%
    19:00 +26°C° 0.4 mm 1 mps 690 mmHg 72%
    20:00 +23°C° 0.4 mm 0 mps 690 mmHg 78%
    21:00 +22°C° 0 mm 0 mps 691 mmHg 78%
    22:00 +24°C° 0 mm 1 mps 691 mmHg 78%
    23:00 +24°C° 0 mm 1 mps 691 mmHg 78%

    28 February, Wednesday

    Time Temperature Precipitation Wind Pressure Humidity
    00:00 +23°C° 0 mm 1 mps 691 mmHg 78%
    01:00 +23°C° 0 mm 1 mps 691 mmHg 78%
    02:00 +23°C° 0 mm 1 mps 690 mmHg 78%
    03:00 +22°C° 0 mm 1 mps 690 mmHg 78%
    04:00 +22°C° 0 mm 1 mps 691 mmHg 78%
    05:00 +22°C° 0 mm 1 mps 691 mmHg 78%
    06:00 +23°C° 0 mm 1 mps 691 mmHg 74%
    07:00 +25°C° 0 mm 1 mps 692 mmHg 70%
    08:00 +27°C° 0 mm 1 mps 693 mmHg 67%
    09:00 +29°C° 0 mm 1 mps 692 mmHg 59%
    10:00 +31°C° 0 mm 1 mps 692 mmHg 52%
    11:00 +33°C° 0 mm 1 mps 692 mmHg 45%
    12:00 +33°C° 0 mm 1 mps 691 mmHg 44%
    13:00 +35°C° 0 mm 2 mps 690 mmHg 42%
    14:00 +35°C° 0 mm 2 mps 690 mmHg 41%
    15:00 +34°C° 0.2 mm 2 mps 689 mmHg 48%
    16:00 +31°C° 0.2 mm 2 mps 689 mmHg 54%
    17:00 +30°C° 0.2 mm 2 mps 689 mmHg 60%
    18:00 +28°C° 0.8 mm 1 mps 690 mmHg 67%
    19:00 +26°C° 0.8 mm 1 mps 690 mmHg 74%
    20:00 +23°C° 0.8 mm 0 mps 691 mmHg 81%
    21:00 +22°C° 0.9 mm 0 mps 691 mmHg 83%
    22:00 +24°C° 0.9 mm 1 mps 691 mmHg 85%
    23:00 +24°C° 0.9 mm 1 mps 691 mmHg 87%
    Show more